DW3310 Weather Reports


time (UTC)temp
C
wind
direction
speed
KPH
gust
KPH
rain 1hr
cm
rain 24hr
cm
rain mn
cm
humidity
%
barometer
mb
20260504211600 17 360 0.0 0.0 0.00 0.00 0.00 38 1006.5
20260504210059 17 188 0.0 0.0 0.00 0.00 0.00 38 1006.4
20260504204556 17 360 0.0 0.0 0.00 0.00 0.00 38 1006.3
20260504203107 18 360 0.0 0.0 0.00 0.00 0.00 38 1006.3
20260504201555 18 360 0.0 0.0 0.00 0.00 0.00 40 1006.3
20260504200049 18 306 0.0 0.0 0.00 0.00 0.00 37 1006.5
20260504194546 17 360 0.0 0.0 0.00 0.00 0.00 39 1006.6
20260504193044 17 360 0.0 0.0 0.00 0.00 0.00 40 1006.7
20260504191549 17 360 0.0 0.0 0.00 0.00 0.00 39 1006.7
20260504190046 17 360 0.0 0.0 0.00 0.00 0.00 40 1006.8
20260504184541 17 360 0.0 0.0 0.00 0.00 0.00 41 1006.9
20260504183040 17 360 0.0 0.0 0.00 0.00 0.00 41 1007.1
20260504181544 16 360 0.0 0.0 0.00 0.00 0.00 42 1007.2
20260504180038 16 360 0.0 0.0 0.00 0.00 0.00 41 1006.9
20260504174535 17 360 0.0 0.0 0.00 0.00 0.00 40 1006.9
20260504173033 16 360 0.0 0.0 0.00 0.00 0.00 42 1006.9
20260504171532 16 360 0.0 0.0 0.00 0.00 0.00 40 1007.1
20260504081501 6 360 0.0 0.0 0.00 0.05 0.00 68 1009.6
20260504044551 5 360 0.0 0.0 0.00 0.08 0.00 54 1009.6
20260504043043 5 360 0.0 0.0 0.00 0.08 0.00 55 1009.6
20260504041541 5 168 0.0 0.0 0.00 0.08 0.00 55 1009.4
20260504040049 5 360 0.0 0.0 0.00 0.08 0.00 55 1009.3
20260504034534 5 360 0.0 0.0 0.00 0.08 0.08 55 1009.3
20260504033030 5 360 0.0 0.0 0.00 0.08 0.08 55 1009.2
20260504031528 5 360 0.0 0.0 0.00 0.08 0.08 56 1009.3
20260504030023 5 360 0.0 0.0 0.00 0.08 0.08 56 1009.3
20260504024516 5 360 0.0 0.0 0.00 0.08 0.08 56 1009.4
20260504023012 5 300 0.0 0.0 0.00 0.08 0.08 56 1009.4
20260504021511 5 360 0.0 0.0 0.00 0.08 0.08 56 1009.4
20260504020004 6 360 0.0 0.0 0.00 0.08 0.08 55 1009.4
20260504014502 5 360 0.0 0.0 0.00 0.08 0.08 56 1009.4
20260504013101 5 360 0.0 0.0 0.00 0.08 0.08 57 1009.3
20260504011559 5 360 0.0 0.0 0.00 0.08 0.08 56 1009.3
20260504004603 5 360 0.0 0.0 0.00 0.10 0.08 57 1009.0
20260504003105 6 360 0.0 0.0 0.00 0.10 0.08 56 1008.9
20260504001604 6 360 0.0 0.0 0.00 0.10 0.08 55 1008.6
20260504000055 6 304 0.0 0.0 0.00 0.10 0.08 54 1008.4
20260503234545 6 360 0.0 0.0 0.00 0.15 0.08 53 1008.3
20260503233041 6 279 0.0 0.0 0.00 0.15 0.08 51 1008.1
20260503231536 6 360 0.0 0.0 0.00 0.15 0.08 52 1008.0
20260503230036 7 360 0.0 0.0 0.00 0.15 0.08 51 1007.9
20260503224527 7 360 0.0 0.0 0.00 0.33 0.08 51 1007.9
20260503223027 7 360 0.0 0.0 0.00 0.33 0.08 50 1007.8
20260503221527 7 299 0.0 0.0 0.00 0.33 0.08 51 1007.6
20260503220026 7 360 0.0 0.0 0.00 0.33 0.08 52 1007.6
20260503214525 6 302 0.0 0.0 0.00 0.36 0.08 52 1007.5
20260503213025 7 286 0.0 0.0 0.00 0.36 0.08 53 1007.5